Погода в Чханвоне

Южная Корея     35°11′43″N   128°38′10″E
темп.,
°C
ветер,
м/с
пор.,
м/с
влажн.,
%
обл.,
%
осадки,
мм/ч
давл.,
гПа
погр.,
м
8 марта, пн
пн800:00+6ссв116933 0.0 102664
03:00+5ссв117418 0.0 102674
06:00+4с117521 0.0 102658
09:00+7с116210 0.0 1028256
12:00+13всв12430 0.0 10271090
15:00+13юв22424 0.0 10251466
18:00+9в465957 0.0 1026866
21:00+8в246174 0.0 1027528
9 марта, вт
вт900:00+7ссв116657 0.0 1027203
03:00+5ссв117134 0.0 102669
06:00+5ссв1173100 0.0 102659
09:00+7с1164100 0.0 1027249
12:00+11сз2350100 0.0 1025935
15:00+14зсз2439100 0.0 10241264
18:00+12сз1348100 0.0 1024513
21:00+9ссз115867 0.0 102648
10 марта, ср
ср1000:00+7ссз234770 0.0 1026125
03:00+6с235238 0.0 1026108
06:00+5с22540 0.0 102781
09:00+8с23480 0.0 1029249
12:00+14св35450 0.0 10291103
15:00+14в33460 0.0 10281044
18:00+12в34570 0.0 1028504
21:00+9в12670 0.0 1029296
11 марта, чт
чт1100:00+8св11734 0.0 102980
03:00+6с117820 0.0 102832
06:00+6с118056 0.0 102829
09:00+9сз116578 0.0 1028178
12:00+12юз0149100 0.0 1028514
15:00+15ю1135100 0.0 1025941
18:00+14юв114094 0.0 1024387
21:00+12юз125397 0.0 1026133
12 марта, пт
пт1200:00+10ююв1167100 0.4 1025183
03:00+9ссв1182100 2.2 1024134
06:00+9с1284100 0.4 1024143
09:00+10с1273100 0.5 1025152
12:00+15всв2448100 0.0 10241100
15:00+17всв354189 0.0 10231725
18:00+14св46482 0.0 1023745
21:00+10св27751 0.0 1025470